TimeEST,TemperatureF,Dew PointF,Humidity,Sea Level PressureIn,VisibilityMPH,Wind Direction,Wind SpeedMPH,Gust SpeedMPH,PrecipitationIn,Events,Conditions,WindDirDegrees,DateUTC
12:00 AM,78.8,73.4,83,29.83,6.2,Variable,2.3,-,N/A,,Scattered Clouds,0,2012-10-26 05:00:00
1:00 AM,78.8,73.4,83,29.80,6.2,Variable,1.2,-,N/A,,Scattered Clouds,0,2012-10-26 06:00:00
2:00 AM,78.8,75.2,89,29.80,6.2,Variable,3.5,-,N/A,,Scattered Clouds,0,2012-10-26 07:00:00
3:00 AM,77.0,73.4,89,29.80,6.2,Calm,Calm,-,N/A,,Scattered Clouds,0,2012-10-26 08:00:00
4:00 AM,78.8,73.4,83,29.71,6.2,Calm,Calm,-,N/A,,Scattered Clouds,0,2012-10-26 09:00:00
5:00 AM,77.0,73.4,89,29.77,6.2,Calm,Calm,-,N/A,,Scattered Clouds,0,2012-10-26 10:00:00
6:00 AM,78.8,73.4,83,29.80,6.2,Calm,Calm,-,N/A,,Scattered Clouds,0,2012-10-26 11:00:00
7:00 AM,78.8,73.4,83,29.83,6.2,Variable,1.2,-,N/A,,Mostly Cloudy,0,2012-10-26 12:00:00
8:00 AM,80.6,73.4,79,29.86,5.6,SW,1.2,-,N/A,,Mostly Cloudy,230,2012-10-26 13:00:00
9:00 AM,82.4,73.4,74,29.89,6.2,SW,2.3,-,N/A,,Mostly Cloudy,230,2012-10-26 14:00:00
10:00 AM,82.4,73.4,74,29.89,6.2,SSW,4.6,-,N/A,,Mostly Cloudy,210,2012-10-26 15:00:00
11:00 AM,84.2,71.6,66,29.86,6.2,SW,5.8,-,N/A,,Scattered Clouds,230,2012-10-26 16:00:00
12:00 PM,84.2,73.4,70,29.86,6.2,South,3.5,-,N/A,,Scattered Clouds,190,2012-10-26 17:00:00
1:00 PM,86.0,73.4,66,29.83,6.2,South,4.6,-,N/A,,Scattered Clouds,180,2012-10-26 18:00:00
2:00 PM,86.0,73.4,66,29.80,6.2,South,4.6,-,N/A,,Scattered Clouds,170,2012-10-26 19:00:00
3:00 PM,84.2,73.4,70,29.77,6.2,SE,4.6,-,N/A,,Scattered Clouds,140,2012-10-26 20:00:00
4:00 PM,82.4,73.4,74,29.77,6.2,SSE,3.5,-,N/A,,Scattered Clouds,150,2012-10-26 21:00:00
5:00 PM,80.6,73.4,79,29.77,6.2,SE,2.3,-,N/A,,Scattered Clouds,140,2012-10-26 22:00:00
6:00 PM,78.8,73.4,83,29.77,6.2,Calm,Calm,-,N/A,,Scattered Clouds,0,2012-10-26 23:00:00
7:00 PM,78.8,73.4,83,29.80,6.2,Calm,Calm,-,N/A,,Scattered Clouds,0,2012-10-27 00:00:00
8:00 PM,80.6,73.4,79,29.83,6.2,Calm,Calm,-,N/A,,Scattered Clouds,0,2012-10-27 01:00:00
9:00 PM,78.8,73.4,83,29.83,6.2,Calm,Calm,-,N/A,,Scattered Clouds,0,2012-10-27 02:00:00
10:00 PM,78.8,73.4,83,29.86,6.2,Calm,Calm,-,N/A,,Mostly Cloudy,0,2012-10-27 03:00:00
11:00 PM,78.8,73.4,83,29.86,6.2,Calm,Calm,-,N/A,,Mostly Cloudy,0,2012-10-27 04:00:00